www.pogodaiklimat.ru
ПОГОДА в Чикаго / Уилинг
Время
и дата
03:52 03.12
04:52 03.12
05:52 03.12
06:52 03.12
07:52 03.12
08:52 03.12
09:52 03.12
10:52 03.12
11:52 03.12
12:52 03.12
13:52 03.12
14:52 03.12
15:52 03.12
16:52 03.12
17:52 03.12
18:52 03.12
19:52 03.12
20:52 03.12
21:52 03.12
22:52 03.12
23:52 03.12
00:52 04.12
01:52 04.12
02:52 04.12
03:52 04.12
04:52 04.12
05:52 04.12
06:52 04.12
07:52 04.12
08:52 04.12
09:52 04.12
10:52 04.12
11:52 04.12
12:52 04.12
13:52 04.12
14:52 04.12
15:52 04.12
16:52 04.12
17:52 04.12
18:52 04.12
19:52 04.12
20:52 04.12
21:52 04.12
22:52 04.12
23:52 04.12
00:52 05.12
01:52 05.12
02:52 05.12
Ветер
(напр.,м/с)
Видим. Явления Облачность Т
(С)
Тd
(С)
f
(%)
Тe
(С)
Тes
(С)
Комфортность P
(гПа)
Po
(гПа)
Тmin
(С)
Tmax
(С)
R
(мм)
R24
(мм)
S
(см)
З 10
{16}
16 км 2/2 720 m
[Ac]
0.0 -5.6 66 -8 -8 1015.2 991.3
З 10
{14}
16 км ясно -2.2 -7.2 69 -11 -11 1017.8 993.6
З 9
{13}
16 км ясно -3.3 -8.9 65 -12 -12 1020.4 996.3 -3.3 +11.1
З 6
{10}
16 км ясно -3.9 -9.4 66 -11 -11 1022.6 998.2
З 8
{11}
16 км ясно -4.4 -10.0 65 -13 -13 1024.7 1000.6
З 8
{12}
16 км ясно -3.9 -10.6 60 -12 -12 1026.6 1002.2
З 6
{10}
16 км ясно -3.3 -11.1 55 -10 -10 1027.8 1003.5
З 5
{11}
16 км ясно -2.8 -11.7 50 -9 -7 1028.4 1004.2
З 7 16 км ясно -1.1 -11.7 44 -8 -7 1028.9 1004.5 -4.4 -1.1
З 7
{10}
16 км ясно -0.6 -12.2 41 -7 -6 1029.2 1004.9
СЗ 6
{11}
16 км ясно 0.0 -13.3 36 -6 -4 1029.3 1004.9
З 5 16 км ясно 0.0 -13.3 36 -5 -4 1029.4 1004.9
З 3 16 км ясно -1.1 -13.9 37 -5 -4 1029.9 1005.2
З 3 16 км ясно -2.2 -13.9 40 -6 -6 1030.7 1005.8
З 5 16 км ясно -2.2 -13.3 42 -8 -8 1031.5 1006.5 -2.8
З 5 16 км ясно -3.3 -13.3 46 -9 -9 1032.0 1007.2
З 3 16 км ясно -4.4 -13.9 47 -9 -9 1031.7 1006.8
З 3 16 км ясно -5.0 -13.3 52 -10 -10 1031.1 1006.2
З 2 16 км ясно -5.6 -13.3 55 -9 -9 1030.9 1005.8
З 3 16 км ясно -5.6 -13.3 55 -11 -11 1030.7 1005.8
З 3 16 км ясно -5.6 -13.3 55 -11 -11 1029.9 1005.2 -6.1 -2.2
З 3 16 км ясно -6.1 -13.3 57 -11 -11 1029.1 1004.2
ЮЗ 2 16 км ясно -6.1 -13.3 57 -10 -10 1028.4 1003.5
Ю 2 16 км ясно -6.7 -13.3 59 -11 -11 1027.3 1002.5
Ю 4 16 км ясно -6.7 -12.8 62 -13 -13 1026.7 1001.9
Ю 3 16 км ясно -7.2 -12.8 64 -13 -13 1025.8 1000.9
ЮЗ 3 16 км ясно -6.1 -12.8 59 -11 -11 1025.6 1000.9 -7.2 -5.6
ЮЗ 5 16 км ясно -6.1 -12.8 59 -13 -13 1025.2 1000.2
ЮЗ 5 16 км ясно -4.4 -12.2 54 -11 -11 1025.6 1000.9
ЮЗ 6
{9}
16 км ясно -2.8 -11.7 50 -9 -9 1024.1 999.2
ЮЗ 4 16 км ясно -0.6 -11.1 45 -5 -4 1024.2 999.6
ЮЗ 5
{9}
16 км ясно +0.6 -10.6 43 -4 -3 1023.3 998.6
ЮЗ 5
{9}
16 км ясно +1.7 -10.0 41 -3 -1 1021.5 996.9 -6.1 +1.7
З 7
{10}
16 км ясно +3.3 -9.4 39 -2 -1 1021.1 996.6
ЮЗ 4 16 км ясно +3.9 -8.9 39 0 +3 1020.2 995.9
ЮЗ 5 16 км ясно +4.4 -8.9 37 0 +2 1019.6 995.3
ЮЗ 4 16 км ясно +3.9 -8.9 39 0 +1 1019.2 994.6
Ю 4 16 км ясно +2.8 -9.4 40 -1 -1 1018.3 993.9
Ю 5 16 км ясно +2.8 -9.4 40 -2 -2 1017.7 993.3 +1.7 +4.4
Ю 6
{9}
16 км ясно +2.2 -9.4 42 -3 -3 1017.7 993.3
ЮЗ 4
{8}
16 км ясно +1.7 -8.9 45 -3 -3 1017.4 992.9
Ю 4 16 км ясно +1.1 -8.3 49 -3 -3 1017.2 992.9
ЮЗ 4 16 км ясно +1.1 -7.8 51 -3 -3 1016.6 992.3
Ю 5 16 км ясно +0.6 -7.2 56 -5 -5 1016.3 992.0
ЮЗ 5 16 км ясно 0.0 -7.2 58 -6 -6 1015.7 991.6 +2.8
ЮЗ 3 16 км ясно 0.0 -7.2 58 -4 -4 1015.1 991.0
ЮЗ 4 16 км ясно -0.6 -7.2 61 -6 -6 1015.1 991.0
Ю 3 16 км ясно -0.6 -6.7 63 -5 -5 1014.5 990.3
Местоположение метеостанции Pal-Waukee Airport: широта 42.1208 долгота -87.9047 высота над уровнем моря 197 м.
В архиве по умолчанию представлена погода в Чикаго / Уилинг за последние 1-2 суток. Обновление информации о фактической погоде в базе происходит ежечасно! Архивные данные за месяц целиком и за предыдущие месяцы Вы можете получить, выбрав интересующий диапазон дат из раскрывающегося списка и нажав кнопку "Ввод!".
Внимание! Архив погоды МЕТАР в базе сайта по станциям, не включенным в климатический монитор, хранится не более 60 дней. Нет смысла пытаться выбрать более раннюю дату.
*Определитесь, кто Вы:
Внимание! Время в таблицах - местное (без учета летнего времени). Для получения всемирного времени необходимо вычесть поправку, которая равна -6 ч.
Смотрите также архив погоды в соседних городах и на ближайших метеорологических станциях:
Партнеры нашего сайта:      
Пояснения к столбцам:
  • Ветер - указаны скорость ветра в м/с - средняя за 10 мин, порывы в срок и между сроками (в фигурных скобках) и направление, откуда дует ветер: С - северный,
  • СВ - северо-восточный, В - восточный, ЮВ - юго-восточный, Ю - южный, ЮЗ - юго-западный, З - западный, СЗ - северо-западный.
  • Видимость - горизонтальная дальность видимости в метрах или километрах. При видимости от 1 до 10 км при отсутствии осадков обычно наблюдается дымка, при ухудшении видимости до 1 км и менее - туман. В сухую погоду видимость может ухудшаться дымом, пылью или мглою.
  • Явления - указаны атмосферные явления, наблюдавшиеся в срок или в последний час перед сроком; фигурными скобками обозначены явления, наблюдавшиеся между сроками (за 1-3 часа до срока); квадратными скобками обозначены град или гололедные отложения с указанием их диаметра в мм.
  • Облачность - указаны через наклонную черту общая и нижняя облачность в баллах и высота нижней границы облаков в метрах; квадратными скобками обозначены формы облаков: Ci - перистые, Cs - перисто-слоистые, Cc - перисто-кучевые, Ac - высококучевые, As - высокослоистые, Sc - слоисто-кучевые, Ns - слоисто-дождевые, Cu - кучевые, Cb - кучево-дождевые. Подробнее классификацию облаков см. в Атласе облаков (PDF).
  • T - Температура воздуха - температура, измеренная на высоте 2 м над землей.
  • Td - Температура точки росы - температура, при понижении до которой содержащийся в воздухе водяной пар достигнет насыщения.
  • f - Относительная влажность воздуха - влажноcть воздуха, измеренная на высоте 2 м над землей.
  • Te - Эффективная температура - температура, которую ощущает одетый по сезону человек в тени. Характеристика душности погоды. При расчете учитывается влияние влажности воздуха и скорости ветра на теплоощущения человека.
  • Tes - Эффективная температура на солнце - температура, которую ощущает человек, с поправкой на солнечный нагрев. Характеристика знойности погоды. Зависит от высоты солнца над горизонтом, облачности и скорости ветра. Ночью, в пасмурную погоду, а также при ветре 12 м/с и более поправка равна нулю.
  • P - Атмосферное давление - приведенное к уровню моря атмосферное давление.
  • Po - Атмосферное давление - измеренное на уровне метеостанции атмосферное давление.
  • Tmin - Минимальная температура - минимум температуры воздуха на высоте 2 м над землей.
  • Tmax - Максимальная температура - максимум температуры воздуха на высоте 2 м над землей.
  • R - Количество осадков - Количество выпавших осадков за период времени, мм. При наведении курсора мыши на число - период времени, за который выпало указанное количество осадков.
  • R24 - Количество осадков - Количество выпавших осадков за 24 часа, мм.
  • S - Снежный покров - Высота снежного покрова, см. При наведении курсора мыши на число - состояние снежного покрова и степень покрытия местности в баллах.